Weather History for Grand Marais, MN

Change the Weather History Date:

Tuesday, January 29, 2013

  Actual Average (KCKC) Record (KCKC)
Temperature  
Mean Temperature 32 °F -  
Max Temperature 37 °F 18 °F 39 °F (2001)
Min Temperature 28 °F 2 °F -20 °F (2004)
Degree Days  
Heating Degree Days 32    
Moisture  
Dew Point 28 °F    
Average Humidity 77    
Maximum Humidity 93    
Minimum Humidity 61    
Precipitation  
Precipitation 0.11 in - - ()
Sea Level Pressure  
Sea Level Pressure 29.62 in    
Wind  
Wind Speed 7 mph (ENE)    
Max Wind Speed 13 mph    
Max Gust Speed 18 mph    
Averages and records for this station are not official NWS values.
T = Trace of Precipitation, MM = Missing Value Source: NWS Daily Summary

Daily Weather History Graph

Daily Weather History Graph

Search for Another Location

Airport:

Trip Planner

Search our weather history database for the weather conditions in past years. The results will help you decide how hot, cold, wet, or windy it might be!

Date:

Astronomy

Jan. 29, 2013 Rise Set
Actual Time 7:31 AM CST 4:57 PM CST
Civil Twilight 6:58 AM CST 5:31 PM CST
Nautical Twilight 6:21 AM CST 6:08 PM CST
Astronomical Twilight 5:44 AM CST 6:44 PM CST
Moon 8:11 PM CST (1/29) 8:13 AM CST (1/29)
Length of Visible Light 10h 33m
Length of Day
9h 26m
Waning Gibbous, 93% of the Moon is Illuminated
Jan 29
Waning Gibbous
Feb 3
Last Quarter
Feb 10
New
Feb 17
First Quarter
Feb 25
Full

Hourly Weather History & Observations

Time (CST) Temp. Windchill Dew Point Humidity Pressure Visibility Wind Dir Wind Speed Gust Speed Precip Events Conditions
12:56 AM 36.0 °F 28.0 °F 30.0 °F 79% 29.73 in - East 11.5 mph - N/A   Unknown
1:56 AM 36.0 °F 28.0 °F 30.9 °F 82% 29.70 in - East 11.5 mph - N/A   Unknown
2:56 AM 36.0 °F 29.0 °F 30.9 °F 82% 29.67 in - East 9.2 mph - N/A   Unknown
3:56 AM 36.0 °F 31.1 °F 32.0 °F 86% 29.63 in - ESE 5.8 mph - 0.03 in   Unknown
4:56 AM 36.0 °F 30.3 °F 30.9 °F 82% 29.60 in - East 6.9 mph - N/A   Unknown
5:56 AM 35.1 °F 30.1 °F 33.1 °F 92% 29.57 in - East 5.8 mph - 0.01 in   Unknown
6:56 AM 35.1 °F 31.0 °F 33.1 °F 92% 29.54 in - ESE 4.6 mph - 0.01 in   Unknown
7:56 AM 35.1 °F - 33.1 °F 92% 29.55 in - Calm Calm - 0.03 in   Unknown
8:56 AM 34.0 °F - 32.0 °F 92% 29.54 in - Calm Calm - 0.03 in   Unknown
9:56 AM 35.1 °F - 32.0 °F 89% 29.54 in - Calm Calm - N/A   Unknown
10:56 AM 36.0 °F - 34.0 °F 93% 29.52 in - Calm Calm - N/A   Unknown
11:56 AM 37.0 °F 31.6 °F 32.0 °F 82% 29.52 in - NNW 6.9 mph - N/A   Unknown
12:56 PM 37.0 °F 33.3 °F 30.9 °F 79% 29.57 in - West 4.6 mph - N/A   Unknown
1:56 PM 37.9 °F 33.5 °F 28.9 °F 70% 29.55 in - Variable 5.8 mph - N/A   Unknown
2:56 PM 37.0 °F 31.0 °F 28.0 °F 70% 29.58 in - NNW 8.1 mph - N/A   Unknown
3:56 PM 37.0 °F 34.5 °F 27.0 °F 67% 29.60 in - Variable 3.5 mph - N/A   Unknown
4:56 PM 36.0 °F 27.5 °F 27.0 °F 70% 29.62 in - SW 12.7 mph 18.4 mph N/A   Unknown
5:56 PM 34.0 °F 29.8 °F 25.0 °F 70% 29.64 in - Variable 4.6 mph - N/A   Unknown
6:56 PM 32.0 °F 26.4 °F 21.9 °F 66% 29.65 in - Variable 5.8 mph - N/A   Unknown
7:56 PM 30.9 °F 27.5 °F 19.0 °F 61% 29.69 in - Variable 3.5 mph - N/A   Unknown
8:56 PM 30.9 °F - 19.9 °F 64% 29.69 in - Calm Calm - N/A   Unknown
9:56 PM 30.9 °F 27.5 °F 19.9 °F 64% 29.72 in - Variable 3.5 mph - N/A   Unknown
10:56 PM 28.9 °F 22.8 °F 18.0 °F 64% 29.70 in - NNE 5.8 mph - N/A   Unknown
11:56 PM 28.9 °F 23.9 °F 19.0 °F 67% 29.73 in - Variable 4.6 mph - N/A   Unknown